Date String (YYYY-MM-DD hh:mm:ss) UTC,Instrument flags,Ambient pressure (hPa),Sample flow (lpm),Bypass flow (lpm),Sample temperature (°C),Ambient temperature (°C),ASC tube jacket temperature (°C),LED temperature (°C),Box temperature (°C),Sample RH (%),Span deviation,Mass concentration (μg/m³),Mass concentration (μg/m³),Mass concentration (μg/m³)
DateTimeUTC,F1_M11,P_M11,Q1_M11,Q2_M11,T1_M11,T2_M11,T3_M11,T4_M11,T5_M11,U1_M11,ZSPAN_M11,X0_M11,X2_M11,X1_M11
2023-01-28 10:00:00,,0816.4,5.02,0.00,22.3,20.7,00.0,31.2,24.0,10.5,0000.0,0009.23,0004.93,0004.57
2023-01-28 10:01:00,,0816.5,5.01,0.00,22.3,20.7,00.0,31.1,24.0,10.5,0000.0,0009.23,0004.98,0004.60
2023-01-28 10:02:00,,0816.4,5.00,0.00,22.3,21.4,00.0,31.1,24.2,10.5,0000.0,0008.98,0004.96,0004.61
2023-01-28 10:03:00,,0816.4,5.00,0.00,22.4,22.4,00.0,31.1,24.4,10.5,0000.0,0009.00,0004.97,0004.61
2023-01-28 10:04:00,,0816.5,5.00,0.00,22.5,23.0,00.0,31.1,24.6,10.5,0000.0,0008.92,0004.95,0004.61
2023-01-28 10:05:00,,0816.4,5.01,0.00,22.6,22.6,00.0,31.2,24.5,10.5,0000.0,0008.88,0004.96,0004.61
2023-01-28 10:06:00,,0816.4,4.99,0.00,22.6,22.2,00.0,31.2,24.4,10.5,0000.0,0008.70,0004.93,0004.60
2023-01-28 10:07:00,,0816.3,4.98,0.00,22.6,21.9,00.0,31.3,24.4,10.5,0000.0,0008.53,0004.90,0004.58
2023-01-28 10:08:00,,0816.3,5.00,0.00,22.5,21.6,00.0,31.3,24.3,10.5,0000.0,0008.59,0004.88,0004.55
2023-01-28 10:09:00,,0816.2,5.00,0.00,22.5,21.5,00.0,31.3,24.3,10.5,0000.0,0008.54,0004.84,0004.52
2023-01-28 10:10:00,,0816.1,4.99,0.00,22.5,21.3,00.0,31.3,24.3,10.5,0000.0,0008.45,0004.80,0004.49
2023-01-28 10:11:00,,0816.2,5.02,0.00,22.5,21.1,00.0,31.3,24.2,10.5,0000.0,0008.38,0004.76,0004.48
2023-01-28 10:12:00,,0816.2,5.01,0.00,22.5,21.0,00.0,31.3,24.2,10.5,0000.0,0008.32,0004.73,0004.46
2023-01-28 10:13:00,,0816.3,4.99,0.00,22.4,20.9,00.0,31.3,24.2,10.5,0000.0,0008.35,0004.72,0004.46
2023-01-28 10:14:00,,0816.3,5.00,0.00,22.4,20.8,00.0,31.3,24.1,10.6,0000.0,0008.34,0004.73,0004.47
2023-01-28 10:15:00,,0816.2,5.01,0.00,22.4,20.8,00.0,31.3,24.1,10.6,0000.0,0008.39,0004.74,0004.50
2023-01-28 10:16:00,,0816.3,4.99,0.00,22.4,20.8,00.0,31.3,24.1,10.6,0000.0,0008.36,0004.73,0004.51
2023-01-28 10:17:00,,0816.4,4.99,0.00,22.4,20.8,00.0,31.3,24.1,10.6,0000.0,0008.44,0004.76,0004.52
2023-01-28 10:18:00,,0816.4,5.01,0.00,22.4,20.8,00.0,31.3,24.1,10.6,0000.0,0008.48,0004.77,0004.53
2023-01-28 10:19:00,,0816.4,5.00,0.00,22.4,20.9,00.0,31.3,24.1,10.5,0000.0,0008.36,0004.76,0004.52
2023-01-28 10:20:00,,0816.4,5.00,0.00,22.3,20.9,00.0,31.3,24.0,10.5,0000.0,0008.42,0004.78,0004.51
2023-01-28 10:21:00,,0816.4,5.00,0.00,22.3,20.8,00.0,31.3,24.0,10.6,0000.0,0008.51,0004.81,0004.51
2023-01-28 10:22:00,,0816.3,5.00,0.00,22.3,20.6,00.0,31.2,24.0,10.6,0000.0,0008.49,0004.82,0004.51
2023-01-28 10:23:00,,0816.4,4.99,0.00,22.3,20.5,00.0,31.2,24.0,10.7,0000.0,0008.68,0004.84,0004.52
2023-01-28 10:24:00,,0816.4,5.01,0.00,22.2,20.5,00.0,31.2,23.9,10.7,0000.0,0009.15,0004.86,0004.52
2023-01-28 10:25:00,,0816.4,5.00,0.00,22.3,21.3,00.0,31.2,24.1,10.6,0000.0,0009.20,0004.87,0004.51
2023-01-28 10:26:00,,0816.4,5.00,0.00,22.4,22.3,00.0,31.1,24.4,10.6,0000.0,0009.31,0004.87,0004.50
2023-01-28 10:27:00,,0816.4,4.99,0.00,22.5,22.8,00.0,31.2,24.5,10.5,0000.0,0009.38,0004.89,0004.51
2023-01-28 10:28:00,,0816.4,5.01,0.00,22.5,22.5,00.0,31.2,24.5,10.5,0000.0,0009.34,0004.89,0004.52
2023-01-28 10:29:00,,0816.4,4.99,0.00,22.5,22.1,00.0,31.3,24.4,10.5,0000.0,0009.31,0004.90,0004.52
2023-01-28 10:30:00,,0816.4,4.99,0.00,22.5,21.8,00.0,31.3,24.4,10.5,0000.0,0009.50,0004.91,0004.54
2023-01-28 10:31:00,,0816.4,5.00,0.00,22.5,21.6,00.0,31.3,24.3,10.5,0000.0,0009.43,0004.89,0004.55
2023-01-28 10:32:00,,0816.4,5.01,0.00,22.5,21.5,00.0,31.3,24.3,10.5,0000.0,0009.40,0004.89,0004.57
2023-01-28 10:33:00,,0816.3,4.99,0.00,22.5,21.4,00.0,31.3,24.3,10.5,0000.0,0009.48,0004.90,0004.57
2023-01-28 10:34:00,,0816.3,5.01,0.00,22.5,21.2,00.0,31.3,24.3,10.5,0000.0,0009.36,0004.88,0004.56
2023-01-28 10:35:00,,0816.3,4.99,0.00,22.5,20.9,00.0,31.3,24.2,10.6,0000.0,0008.76,0004.83,0004.54
2023-01-28 10:36:00,,0816.3,5.04,0.00,22.4,20.7,00.0,31.3,24.1,10.6,0000.0,0008.81,0004.78,0004.50
2023-01-28 10:37:00,,0816.3,5.00,0.00,22.4,20.5,00.0,31.3,24.0,10.6,0000.0,0008.93,0004.74,0004.48
2023-01-28 10:38:00,,0816.3,5.05,0.00,22.3,20.4,00.0,31.3,24.0,10.6,0000.0,0008.91,0004.71,0004.44
2023-01-28 10:39:00,,0816.3,4.96,0.00,22.3,20.4,00.0,31.3,24.0,10.7,0000.0,0008.78,0004.61,0004.37
2023-01-28 10:40:00,,0816.3,5.01,0.00,22.3,20.4,00.0,31.3,24.0,10.7,0000.0,0008.70,0004.56,0004.32
2023-01-28 10:41:00,,0816.3,4.98,0.00,22.2,20.4,00.0,31.2,23.9,10.6,0000.0,0008.58,0004.56,0004.32
2023-01-28 10:42:00,,0816.3,5.00,0.00,22.2,20.4,00.0,31.2,24.0,10.6,0000.0,0008.52,0004.58,0004.32
2023-01-28 10:43:00,,0816.3,4.98,0.00,22.2,20.4,00.0,31.2,23.9,10.6,0000.0,0008.80,0004.56,0004.31
2023-01-28 10:44:00,,0816.3,5.00,0.00,22.2,20.4,00.0,31.2,23.9,10.7,0000.0,0008.86,0004.54,0004.31
2023-01-28 10:45:00,,0816.2,4.99,0.00,22.2,20.4,00.0,31.2,23.9,10.7,0000.0,0008.89,0004.56,0004.30
2023-01-28 10:46:00,,0816.1,5.02,0.00,22.2,20.4,00.0,31.1,23.8,10.7,0000.0,0008.90,0004.56,0004.29
2023-01-28 10:47:00,,0816.1,4.99,0.00,22.1,20.5,00.0,31.1,23.8,10.7,0000.0,0008.74,0004.56,0004.29
2023-01-28 10:48:00,,0816.1,5.02,0.00,22.2,21.3,00.0,31.1,24.1,10.7,0000.0,0008.41,0004.56,0004.27
2023-01-28 10:49:00,,0816.2,4.99,0.00,22.3,22.4,00.0,31.1,24.3,10.6,0000.0,0008.47,0004.56,0004.25
2023-01-28 10:50:00,,0816.2,4.99,0.00,22.4,22.8,00.0,31.1,24.5,10.5,0000.0,0008.62,0004.61,0004.27
2023-01-28 10:51:00,,0816.1,5.01,0.00,22.4,22.4,00.0,31.2,24.4,10.5,0000.0,0009.26,0004.61,0004.27
2023-01-28 10:52:00,,0816.1,5.00,0.00,22.4,21.9,00.0,31.2,24.3,10.5,0000.0,0009.13,0004.56,0004.25
2023-01-28 10:53:00,,0816.2,4.98,0.00,22.4,21.6,00.0,31.2,24.3,10.5,0000.0,0009.11,0004.54,0004.21
2023-01-28 10:54:00,,0816.2,5.01,0.00,22.4,21.4,00.0,31.2,24.3,10.5,0000.0,0008.71,0004.50,0004.17
2023-01-28 10:55:00,,0816.1,5.02,0.00,22.4,21.3,00.0,31.2,24.2,10.5,0000.0,0008.73,0004.48,0004.14
2023-01-28 10:56:00,,0816.2,4.99,0.00,22.4,21.2,00.0,31.2,24.2,10.5,0000.0,0008.94,0004.45,0004.13
2023-01-28 10:57:00,,0816.1,5.01,0.00,22.4,21.1,00.0,31.2,24.2,10.5,0000.0,0008.93,0004.42,0004.10
2023-01-28 10:58:00,,0816.1,4.99,0.00,22.4,21.0,00.0,31.2,24.1,10.6,0000.0,0008.97,0004.43,0004.11
2023-01-28 10:59:00,,0816.1,5.00,0.00,22.4,20.9,00.0,31.2,24.1,10.6,0000.0,0008.98,0004.44,0004.13
